Hourly Weather Godzieszowek

Today, 15 May, Saturday

Time Temperature Precipitation Wind Pressure Humidity
00:00 +7°C° 0 mm 2 mps 735 mmHg 92%
01:00 +7°C° 0 mm 2 mps 735 mmHg 92%
02:00 +7°C° 0 mm 2 mps 735 mmHg 92%
03:00 +7°C° 0 mm 2 mps 735 mmHg 93%
04:00 +8°C° 0 mm 1 mps 735 mmHg 93%
05:00 +9°C° 0 mm 1 mps 735 mmHg 89%
06:00 +11°C° 0 mm 1 mps 735 mmHg 85%
07:00 +13°C° 0 mm 1 mps 735 mmHg 81%
08:00 +14°C° 0.2 mm 2 mps 735 mmHg 74%
09:00 +16°C° 0.2 mm 2 mps 735 mmHg 67%
10:00 +17°C° 0.2 mm 2 mps 735 mmHg 61%
11:00 +17°C° 0.2 mm 2 mps 735 mmHg 58%
12:00 +18°C° 0.2 mm 2 mps 734 mmHg 56%
13:00 +18°C° 0.2 mm 2 mps 734 mmHg 54%
14:00 +17°C° 0.4 mm 2 mps 734 mmHg 63%
15:00 +14°C° 0.4 mm 3 mps 734 mmHg 72%
16:00 +13°C° 0.4 mm 3 mps 734 mmHg 81%
17:00 +13°C° 0.4 mm 2 mps 734 mmHg 84%
18:00 +13°C° 0.4 mm 2 mps 734 mmHg 88%
19:00 +12°C° 0.4 mm 2 mps 733 mmHg 91%
20:00 +10°C° 0.1 mm 2 mps 733 mmHg 92%
21:00 +10°C° 0.1 mm 2 mps 733 mmHg 92%
22:00 +9°C° 0.1 mm 2 mps 733 mmHg 93%
23:00 +9°C° 0 mm 2 mps 733 mmHg 92%

Tomorrow, 16 May, Sunday

Time Temperature Precipitation Wind Pressure Humidity
00:00 +8°C° 0 mm 2 mps 733 mmHg 91%
01:00 +8°C° 0 mm 2 mps 733 mmHg 91%
02:00 +8°C° 0 mm 2 mps 733 mmHg 91%
03:00 +8°C° 0 mm 2 mps 733 mmHg 92%
04:00 +8°C° 0 mm 2 mps 733 mmHg 92%
05:00 +9°C° 0 mm 2 mps 733 mmHg 90%
06:00 +10°C° 0 mm 2 mps 734 mmHg 88%
07:00 +12°C° 0 mm 2 mps 734 mmHg 86%
08:00 +13°C° 0 mm 2 mps 734 mmHg 78%
09:00 +14°C° 0 mm 2 mps 734 mmHg 70%
10:00 +15°C° 0 mm 2 mps 734 mmHg 62%
11:00 +15°C° 0.1 mm 2 mps 733 mmHg 61%
12:00 +16°C° 0.1 mm 2 mps 733 mmHg 59%
13:00 +17°C° 0.1 mm 2 mps 733 mmHg 58%
14:00 +16°C° 0.4 mm 2 mps 733 mmHg 61%
15:00 +16°C° 0.4 mm 2 mps 732 mmHg 65%
16:00 +16°C° 0.4 mm 2 mps 732 mmHg 68%
17:00 +15°C° 0.3 mm 2 mps 732 mmHg 73%
18:00 +14°C° 0.3 mm 1 mps 732 mmHg 78%
19:00 +13°C° 0.3 mm 1 mps 732 mmHg 82%
20:00 +12°C° 0 mm 1 mps 732 mmHg 85%
21:00 +10°C° 0 mm 2 mps 732 mmHg 87%
22:00 +9°C° 0 mm 2 mps 732 mmHg 90%
23:00 +9°C° 0.1 mm 2 mps 732 mmHg 90%

Day after tomorrow, 17 May, Monday

Time Temperature Precipitation Wind Pressure Humidity
00:00 +9°C° 0.1 mm 2 mps 732 mmHg 91%
01:00 +9°C° 0.1 mm 3 mps 732 mmHg 92%
02:00 +9°C° 0 mm 3 mps 732 mmHg 92%
03:00 +9°C° 0 mm 3 mps 732 mmHg 93%
04:00 +9°C° 0 mm 3 mps 732 mmHg 93%
05:00 +10°C° 0 mm 3 mps 732 mmHg 90%
06:00 +11°C° 0 mm 3 mps 733 mmHg 87%
07:00 +11°C° 0 mm 3 mps 733 mmHg 83%
08:00 +12°C° 0.1 mm 3 mps 733 mmHg 78%
09:00 +13°C° 0.1 mm 3 mps 733 mmHg 73%
10:00 +14°C° 0.1 mm 4 mps 733 mmHg 68%
11:00 +14°C° 0.3 mm 4 mps 733 mmHg 71%
12:00 +13°C° 0.3 mm 4 mps 733 mmHg 74%
13:00 +13°C° 0.3 mm 5 mps 733 mmHg 77%
14:00 +13°C° 0.3 mm 5 mps 733 mmHg 76%
15:00 +14°C° 0.3 mm 5 mps 733 mmHg 75%
16:00 +14°C° 0.3 mm 5 mps 733 mmHg 74%
17:00 +13°C° 0.2 mm 4 mps 733 mmHg 78%
18:00 +11°C° 0.2 mm 4 mps 734 mmHg 82%
19:00 +10°C° 0.2 mm 3 mps 734 mmHg 86%
20:00 +9°C° 0 mm 3 mps 734 mmHg 88%
21:00 +8°C° 0 mm 3 mps 734 mmHg 90%
22:00 +7°C° 0 mm 3 mps 734 mmHg 92%
23:00 +7°C° 0 mm 3 mps 734 mmHg 92%

18 May, Tuesday

Time Temperature Precipitation Wind Pressure Humidity
00:00 +7°C° 0 mm 3 mps 734 mmHg 92%
01:00 +5°C° 0 mm 3 mps 734 mmHg 92%
02:00 +5°C° 0 mm 3 mps 734 mmHg 92%
03:00 +5°C° 0 mm 3 mps 734 mmHg 92%
04:00 +5°C° 0 mm 3 mps 734 mmHg 92%
05:00 +7°C° 0 mm 3 mps 735 mmHg 89%
06:00 +9°C° 0 mm 3 mps 735 mmHg 85%
07:00 +10°C° 0 mm 4 mps 735 mmHg 82%
08:00 +11°C° 0.1 mm 4 mps 735 mmHg 80%
09:00 +11°C° 0.1 mm 4 mps 736 mmHg 78%
10:00 +11°C° 0.1 mm 4 mps 736 mmHg 77%
11:00 +12°C° 0.2 mm 4 mps 736 mmHg 77%
12:00 +12°C° 0.2 mm 4 mps 736 mmHg 76%
13:00 +13°C° 0.2 mm 4 mps 736 mmHg 76%
14:00 +13°C° 0.6 mm 4 mps 736 mmHg 77%
15:00 +13°C° 0.6 mm 5 mps 736 mmHg 78%
16:00 +13°C° 0.6 mm 5 mps 736 mmHg 79%
17:00 +12°C° 0.4 mm 4 mps 736 mmHg 83%
18:00 +11°C° 0.4 mm 3 mps 737 mmHg 86%
19:00 +10°C° 0.4 mm 3 mps 737 mmHg 89%
20:00 +9°C° 0.1 mm 3 mps 737 mmHg 90%
21:00 +9°C° 0.1 mm 3 mps 738 mmHg 92%
22:00 +8°C° 0.1 mm 3 mps 738 mmHg 93%
23:00 +8°C° 0 mm 3 mps 738 mmHg 93%

19 May, Wednesday

Time Temperature Precipitation Wind Pressure Humidity
00:00 +8°C° 0 mm 3 mps 738 mmHg 93%
01:00 +8°C° 0 mm 3 mps 739 mmHg 94%
02:00 +8°C° 0 mm 3 mps 739 mmHg 94%
03:00 +8°C° 0 mm 3 mps 739 mmHg 94%
04:00 +8°C° 0 mm 3 mps 739 mmHg 94%
05:00 +8°C° 0.5 mm 3 mps 739 mmHg 94%
06:00 +8°C° 0.5 mm 3 mps 739 mmHg 95%
07:00 +8°C° 0.5 mm 3 mps 740 mmHg 95%
08:00 +9°C° 0.8 mm 3 mps 740 mmHg 93%
09:00 +8°C° 0.8 mm 4 mps 740 mmHg 91%
10:00 +10°C° 0.8 mm 4 mps 740 mmHg 89%
11:00 +10°C° 0.3 mm 4 mps 740 mmHg 82%
12:00 +11°C° 0.3 mm 4 mps 740 mmHg 76%
13:00 +12°C° 0.3 mm 4 mps 740 mmHg 70%
14:00 +13°C° 0.1 mm 4 mps 740 mmHg 68%
15:00 +13°C° 0.1 mm 4 mps 740 mmHg 65%
16:00 +13°C° 0.1 mm 4 mps 740 mmHg 63%
17:00 +12°C° 0.3 mm 4 mps 740 mmHg 70%
18:00 +11°C° 0.3 mm 3 mps 740 mmHg 78%
19:00 +10°C° 0.3 mm 3 mps 740 mmHg 85%
20:00 +9°C° 0.1 mm 3 mps 741 mmHg 87%
21:00 +8°C° 0.1 mm 3 mps 741 mmHg 89%
22:00 +7°C° 0.1 mm 3 mps 741 mmHg 92%
23:00 +7°C° 0 mm 3 mps 741 mmHg 91%

20 May, Thursday

Time Temperature Precipitation Wind Pressure Humidity
00:00 +5°C° 0 mm 3 mps 741 mmHg 91%
01:00 +5°C° 0 mm 3 mps 741 mmHg 91%
02:00 +5°C° 0 mm 3 mps 741 mmHg 92%
03:00 +4°C° 0 mm 3 mps 741 mmHg 92%
04:00 +4°C° 0 mm 3 mps 742 mmHg 93%
05:00 +7°C° 0 mm 3 mps 742 mmHg 90%
06:00 +7°C° 0 mm 4 mps 742 mmHg 87%
07:00 +8°C° 0 mm 4 mps 742 mmHg 84%
08:00 +10°C° 0.2 mm 4 mps 742 mmHg 80%
09:00 +11°C° 0.2 mm 4 mps 742 mmHg 76%
10:00 +12°C° 0.2 mm 4 mps 742 mmHg 72%
11:00 +13°C° 0.2 mm 5 mps 741 mmHg 69%
12:00 +13°C° 0.2 mm 5 mps 741 mmHg 67%
13:00 +14°C° 0.2 mm 5 mps 741 mmHg 65%
14:00 +14°C° 0.1 mm 5 mps 740 mmHg 64%
15:00 +14°C° 0.1 mm 5 mps 740 mmHg 64%
16:00 +14°C° 0.1 mm 4 mps 740 mmHg 63%
17:00 +13°C° 0.1 mm 4 mps 740 mmHg 69%
18:00 +12°C° 0.1 mm 3 mps 739 mmHg 74%
19:00 +11°C° 0.1 mm 3 mps 739 mmHg 80%
20:00 +11°C° 0 mm 3 mps 739 mmHg 79%
21:00 +10°C° 0 mm 3 mps 738 mmHg 79%
22:00 +10°C° 0 mm 3 mps 738 mmHg 79%
23:00 +10°C° 0.1 mm 4 mps 738 mmHg 81%
Show more